map of IGL home
Great Circle Mapper logo
IGL - Airport
Location
City:  Izmir, Turkey
Name:Cigli Military
ICAO / IATA:LTBL / IGL

Details
Type:Airport (Aerodrome, Airfield)
Use:Military
Latitude:3830'47"N (38.513022)
Longitude:2700'36"E (27.010053)
Datum:WGS 1984
Elevation:16 ft (5 m)
Runways:1
Longest:9821 × 147 ft (2993 × 45 m), paved

Time
Time Zone:UTC+2 (DST+3)
Local Time:

Weather
METAR:LTBL 250915Z 21008KT 170V230 9999 FEW030TCU SCT033 BKN100 20/14 Q1010 RESHRA NOSIG RMK RWY17 VRB04KT

Related Locations
Nearby:
Farthest:NTAV: 11376 mi / 18307 km
Raivavae, Tubuai Islands, Austral Islands, PF

Find:

   beyond  
but within

Other Information
Maps:
NOTAMs:
Links:
Sources:

  
flag of Turkey   

Airport Diagram

Airport diagram for IGL

Airport diagram (OBSOLETE) from NGA

Sectional Chart

Flight Planning
at skyvector.com

Satellite Image

Google Maps Satellite View

 

Copyright © 2004-2014 Karl L. Swartz. All rights reserved.
The Great Circle Mapper name and logo are trademarks of the Great Circle Mapper.
All other trademarks mentioned herein belong to their respective owners.
Please see credits for attibutions and further copyright information.

  Follow gcmap on Facebook Follow gcmap on Twitter

hCard Microformat

Geo Microformat